Location: Street
(51.1247°N, 2.7429°W)
Time: 14:13:21
(UTC+00:00)

SR - Pass Details

Date: 02 December 2020
Orbit: 575 x 880 km, 66.7° (Epoch: 25 January)

Event Time Altitude Azimuth Distance (km) Brightness Sun altitude
Rises 04:10:51 0° 307° (NW) 3,238 - -34.0°
Reaches altitude 10° 04:14:40 10° 279° (W) 2,376 - -33.4°
Maximum altitude 04:16:51 12° 256° (WSW) 2,239 - -33.1°
Drops below altitude 10° 04:19:04 10° 232° (SW) 2,438 - -32.7°
Sets 04:23:08 0° 205° (SSW) 3,417 - -32.1°
